SCP
0 0 0 0 0 0 0 0 0 0 0 0 0 0 0 0 0 0 0 0 0 0 0 0 0 0 0 0 0 0 0 0 0 0 0 0 0 0 0 0 0 0 0
0 0 0 0 0 0 0 0 0 0 0 0 0 0 0 0 0 0 0 0 0 0 0 0 0 0 0 0 0 0 0 0 0 0 0 0 0 0 0 0 0 0 0
0 0 0 0 0 0 0 0 0 0 0 0 0 0 0 0 0 0 0 0 0 0 0 0 0 0 0 0 0 0 0 0 0 0 0 0 0 0 0 0 0 0 0
0 0 0 0 0 0 0 0 0 0 0 0 0 0 0 0 0 0 0 0 0 0 0 0 0 0 0 0 0 0 0 0 0 0 0 0 0 0 0 0 0 0 0
0 0 0 0 0 0 0 0 0 0 0 0 0 0 0 0 0 0 0 0 0 0 0 0 0 0 0 0 0 0 0 0 0 0 0 0 0 0 0 0 0 0 0
0 0 0 0 0 0 0 0 0 0 0 0 0 0 0 0 0 0 0 0 0 0 0 0 0 0 0 0 0 0 0 0 0 0 0 0 0 0 0 0 0 0 0
0 0 0 0 0 0 0 0 0 0 0 0 0 0 0 0 0 0 0 0 0 0 0 0 0 0 0 0 0 0 0 0 0 0 0 0 0 0 0 0 0 0 0
0 0 0 0 0 0 0 0 0 0 0 0 0 0 0 0 0 0 0 0 0 0 0 0 0 0 0 0 0 0 0 0 0 0 0 0 0 0 0 0 0 -0 0
0 0 0 0 0 0 0 0 0 0 0 0 0 0 0 0 0 0 0 0 0 0 0 0 0 0 0 0 0 0 0 0 0 0 0 0 0 0 0 0 0 0 0
0 0 0 0 0 0 0 0 0 0 0 0 0 0 0 0 0 0 0 0 0 0 0 0 0 0 0 0 0 0 0 0 0 0 0 0 0 0 0 0 0 0 0
0 0 0 0 0 0 0 0 0 0 0 0 0 0 0 0 0 0 0 0 0 0 0 0 0 0 0 0 0 0 0 0 0 0 0 0 0 0 0 0 0 0 0
0 0 0 0 0 0 0 0 0 0 0 0 0 0 0 0 0 0 0 0 0 0 0 0 0 0 0 0 0 0 0 0 0 0 0 0 0 0 0 0 0 0 0
0 0 0 0 0 0 0 0 0 0 0 0 0 0 0 0 0 0 0 0 0 0 0 0 0 0 0 0 0 0 0 0 0 0 0 0 0 0 0 0 0 0 0
0 0 0 0 0 0 0 0 0 0 0 0 0 0 0 0 0 0 0 0 0 0 0 0 0 0 0 0 0 0 0 0 0 0 0 0 0 0 0 0 0 0 0
0 0 0 0 0 0 0 0 0 0 0 0 0 0 0 0 0 0 0 0 0 0 0 0 0 0 0 0 0 0 0 0 0 0 0 0 0 0 0 0 0 0 0
0 0 0 0 0 0 0 0 0 0 0 0 0 0 0 0 0 0 0 0 0 0 0 0 0 0 0 0 0 0 0 0 0 0 0 0 0 0 0 0 0 0 0
0 0 0 0 0 0 0 0 0 0 0 0 0 0 0 0 0 0 0 0 0 0 0 0 0 0 0 0 0 0 0 0 0 0 0 0 0 0 0 0 0 0 0
0 0 0 0 0 0 0 0 0 0 0 0 0 0 0 0 0 0 0 0 0 0 0 0 0 0 0 0 0 0 0 0 0 0 0 0 0 0 0 0 0 0 0
0 0 0 0 0 0 0 0 0 0 0 0 0 0 0 0 0 0 0 0 0 0 0 0 0 0 0 0 0 0 0 0 0 0 0 0 0 0 0 0 0 0 0
0 0 0 0 0 0 0 0 0 0 0 0 0 0 0 0 0 0 0 0 0 0 0 0 0 0 0 0 0 0 0 0 0 0 0 0 0 0 0 0 0 0 0
0 0 0 0 0 0 0 0 0 0 0 0 0 0 0 0 0 0 0 0 0 0 0 0 0 0 0 0 0 0 0 0 0 0 0 0 0 0 0 0 0 0 0
0 0 0 0 0 0 0 0 0 0 0 0 0 0 0 0 0 0 0 0 0 0 0 0 0 0 0 0 0 0 0 0 0 0 0 0 0 0 0 0 0 0 0
0 0 0 0 0 0 0 0 0 0 0 0 0 0 0 0 0 0 0 0 0 0 0 0 0 0 0 0 0 0 0 0 0 0 0 0 0 0 0 0 0 0 0
0 0 0 0 0 0 0 0 0 0 0 0 0 0 0 0 0 0 0 0 0 0 0 0 0 0 0 0 0 0 0 0 0 0 0 0 0 0 0 0 0 0 0
0 0 0 0 0 0 0 0 0 0 0 0 0 0 0 0 0 0 0 0 0 0 0 0 0 0 0 0 0 0 0 0 0 0 0 0 0 0 0 0 0 0 0
0 0 0 0 0 0 0 0 0 0 0 0 0 0 0 0 0 0 0 0 0 0 0 0 0 0 0 0 0 0 0 0 0 0 0 0 0 0 0 0 0 0 0
Wind_Speed_500mb
45 47 50 43 42 37 36 33 35 31 32 30 29 28 27 23 20 18 14 12 13 13 11 9 8 10 12 16 19 20 23 28 35 39 37 26 7 20 14 34 21 36 25
49 50 49 45 42 42 39 34 31 35 30 23 20 24 25 23 18 15 12 9 8 5 4 5 7 11 14 16 20 25 27 30 36 38 26 25 17 9 33 14 34 28 41
55 56 51 47 43 42 40 39 42 40 35 34 36 34 29 21 18 13 9 5 1 3 5 8 10 12 15 20 25 29 32 32 29 28 23 12 9 46 24 30 27 34 46
55 57 49 45 47 50 49 50 44 40 41 41 39 33 27 26 18 10 5 6 5 5 7 9 11 15 19 23 28 30 31 30 31 21 18 12 20 13 28 45 46 47 59
54 51 48 48 48 45 45 41 39 37 35 31 28 33 30 22 13 13 12 8 6 5 6 8 13 20 26 29 28 27 26 28 27 28 30 28 21 13 34 33 58 61 58
59 52 48 48 45 41 41 39 38 38 40 39 35 31 22 19 21 18 12 8 6 6 8 16 22 26 27 28 28 28 28 28 25 24 26 28 30 35 36 50 61 59 56
71 63 51 43 42 40 40 40 39 39 37 34 32 28 25 23 17 12 7 7 7 12 17 21 26 27 26 26 26 27 27 27 28 28 28 27 27 29 34 41 53 58 48
56 50 46 46 43 44 42 38 36 36 37 37 38 36 31 22 17 16 13 10 13 18 24 29 26 23 22 24 26 27 27 27 27 27 28 29 30 32 36 41 51 61 44
42 48 45 44 43 39 39 40 42 45 46 44 40 34 29 25 22 18 16 23 29 31 23 21 18 19 22 24 25 26 27 27 28 29 30 30 32 34 35 38 41 46 44
50 45 43 41 44 45 47 48 47 46 44 41 37 33 20 14 10 11 12 23 23 20 15 15 17 20 23 24 23 25 28 29 32 33 33 33 33 34 35 37 39 40 44
50 45 40 48 51 53 53 54 51 49 42 30 17 9 7 2 5 19 16 16 14 14 14 16 17 20 21 22 25 27 29 31 32 32 32 33 34 33 34 37 41 44 49
44 47 57 61 61 56 54 48 32 20 17 6 3 10 12 22 20 21 15 14 15 15 16 16 18 20 20 23 25 27 29 29 31 32 34 34 33 34 37 42 46 49 53
53 64 65 61 54 39 29 22 23 29 31 32 35 31 25 22 20 17 15 16 18 16 16 17 18 20 23 25 27 28 29 31 33 33 34 35 36 38 42 47 51 55 62
65 70 66 56 50 46 40 34 32 34 40 39 34 29 25 23 21 19 20 20 20 18 17 18 19 22 25 27 28 30 30 31 33 35 35 37 39 44 47 52 55 61 68
60 65 61 55 51 42 34 38 42 42 39 36 33 31 29 26 23 24 24 23 21 18 19 20 22 25 28 28 28 31 32 31 33 35 34 37 42 46 47 49 53 63 63
64 58 55 55 50 42 44 45 44 43 40 39 36 34 32 29 28 29 27 24 21 20 22 23 24 28 31 31 30 30 32 33 35 35 35 38 42 46 47 49 56 57 58
58 59 61 55 50 51 49 48 47 45 42 41 38 37 34 32 33 31 30 27 24 23 25 27 29 30 30 32 32 32 33 35 37 37 37 38 41 44 48 55 61 57 54
53 55 53 52 51 50 49 51 48 43 41 41 39 40 37 37 35 33 31 29 28 28 30 32 32 32 30 32 34 34 35 37 36 38 37 37 40 43 51 62 61 60 58
40 45 50 48 51 52 51 54 48 44 45 43 42 41 41 39 37 35 34 33 33 34 35 35 35 34 32 34 36 36 37 37 36 34 34 38 41 48 55 58 61 60 59
35 40 42 44 50 53 52 50 48 46 45 43 42 42 41 41 39 37 38 38 39 40 40 38 36 35 35 36 39 40 39 36 33 31 33 37 42 49 53 54 56 58 58
22 25 28 33 36 38 40 44 45 46 40 42 43 42 41 40 40 43 45 44 46 45 43 41 39 37 37 39 40 41 38 36 34 33 35 36 42 47 49 48 50 50 50
11 13 18 24 27 31 35 39 43 40 41 43 41 40 41 43 47 49 50 50 50 48 45 44 42 40 40 39 39 41 39 35 35 35 34 37 43 46 48 47 46 49 52
4 5 10 15 20 25 29 32 33 35 38 38 39 42 45 49 51 53 53 54 54 52 48 47 46 45 41 39 39 38 37 33 33 34 35 40 45 46 47 46 48 50 51
6 3 4 6 9 12 17 21 27 33 39 39 41 45 50 52 53 54 56 57 56 54 53 51 49 46 45 41 39 36 35 34 35 32 35 41 44 45 47 49 48 48 49
6 9 13 15 16 19 23 28 32 38 42 45 49 52 55 57 58 59 59 60 59 57 55 53 52 49 47 43 41 36 34 36 37 36 39 42 44 47 50 50 47 47 48
14 16 19 22 24 29 33 36 41 48 52 56 58 59 61 62 64 64 62 62 61 59 59 56 54 50 50 47 44 39 37 38 38 39 41 43 46 50 52 52 51 47 48
Wind_Direction_500mb
188 174 174 172 172 175 173 185 178 181 181 189 182 193 202 225 230 243 264 285 302 307 310 330 347 351 356 0 358 3 359 346 344 340 341 352 342 266 278 319 308 315 312
180 183 173 175 174 170 174 181 184 186 191 191 191 214 219 228 231 236 251 273 293 309 350 10 15 7 9 7 2 356 355 349 348 345 357 343 0 228 309 313 322 313 315
179 175 176 177 179 178 179 180 184 185 177 187 197 202 215 227 218 220 240 252 156 64 41 24 18 19 8 356 350 346 342 345 356 345 1 335 313 322 322 327 332 326 330
173 180 176 172 179 177 180 189 194 192 193 202 211 219 216 215 217 211 188 138 103 57 35 28 16 1 351 344 338 342 344 346 348 351 351 325 310 323 315 324 332 322 334
174 172 170 178 188 188 187 188 191 190 189 191 196 198 206 204 195 161 148 128 106 80 45 11 356 348 342 339 342 346 346 351 358 355 351 351 355 299 317 319 321 331 347
168 168 177 183 184 181 182 185 185 184 184 189 189 197 202 182 162 155 146 116 80 45 11 356 344 339 341 342 347 352 356 357 359 355 353 349 347 339 337 326 331 336 355
156 160 169 177 175 175 176 181 183 179 179 182 181 173 163 150 141 125 117 97 59 17 354 340 337 339 345 348 352 352 352 349 350 352 354 349 346 339 335 333 334 337 348
158 163 169 174 174 175 176 173 169 165 158 153 148 143 135 133 129 110 89 59 24 356 334 328 328 336 346 349 348 346 346 347 347 348 350 350 347 346 347 347 344 342 337
146 152 165 173 172 168 163 160 157 150 144 141 135 131 126 105 86 69 20 335 323 309 304 313 328 336 343 343 343 341 341 343 346 349 350 350 350 351 349 348 349 347 335
145 154 168 165 158 154 149 146 143 137 129 124 117 104 78 60 23 349 312 283 278 279 302 317 329 334 339 338 338 339 343 346 348 348 348 348 348 349 347 347 345 342 332
156 164 160 151 148 144 142 139 135 128 120 109 107 51 53 105 297 270 254 255 285 300 310 323 328 331 333 333 338 342 342 344 344 342 340 341 342 342 343 343 339 335 331
165 163 151 145 143 142 138 134 130 127 125 85 241 233 196 233 236 236 257 283 292 300 309 316 319 323 328 334 335 336 336 335 334 334 335 336 335 337 340 338 337 334 333
162 154 149 145 144 145 154 178 194 201 233 240 206 212 233 240 237 249 267 278 281 290 300 309 318 322 328 327 327 326 327 328 328 330 329 327 331 335 334 335 335 334 335
163 156 158 166 177 182 193 206 206 192 187 197 219 234 237 238 243 255 267 271 277 286 300 307 314 317 318 319 317 317 322 325 325 322 320 323 329 331 332 334 337 337 333
172 173 174 183 188 194 195 181 181 190 207 223 235 235 237 240 248 258 263 268 276 287 297 303 309 312 308 307 311 316 320 321 317 313 315 321 322 326 329 333 334 335 335
182 187 192 191 193 199 192 194 202 214 226 234 234 239 240 242 249 258 264 268 274 288 292 297 299 299 304 310 310 312 314 314 309 309 314 317 320 323 327 328 332 337 335
191 194 194 200 206 203 203 211 220 230 232 235 237 240 242 246 251 259 264 269 276 283 286 289 287 292 300 305 309 310 309 309 307 308 312 315 316 323 324 329 333 335 336
199 202 208 217 214 213 219 228 233 231 234 239 242 243 245 248 254 260 267 274 276 276 277 280 285 290 297 304 306 308 307 305 306 308 310 314 322 327 327 328 332 333 334
218 225 230 229 223 227 234 236 234 233 237 242 245 247 248 253 259 264 268 272 272 271 273 276 282 289 296 301 306 303 300 301 301 302 313 320 322 326 328 328 329 329 332
219 227 236 236 233 238 240 235 236 240 244 249 251 249 251 256 264 271 273 272 269 268 270 274 282 288 295 302 298 295 295 295 300 314 313 315 319 323 327 326 327 328 333
201 209 219 232 238 237 236 236 240 246 251 250 251 254 259 267 274 275 274 271 266 267 271 276 281 286 293 293 293 294 297 296 304 305 306 317 321 324 326 327 329 328 323
193 206 218 226 233 237 241 245 250 254 253 252 255 261 268 272 275 275 274 272 270 270 273 277 281 284 284 283 284 288 292 295 296 300 312 322 324 326 327 329 329 326 328
139 203 228 237 242 247 250 251 250 250 250 253 258 264 270 276 278 279 277 274 272 274 275 278 279 276 275 276 280 283 286 287 292 304 316 320 321 322 326 331 330 329 329
70 38 325 291 275 264 262 261 256 253 253 258 267 273 277 280 281 281 278 276 277 277 275 275 275 273 273 275 277 278 278 284 292 303 313 314 317 323 326 327 328 329 331
343 323 316 309 303 288 278 269 264 261 266 271 274 278 282 283 284 284 283 281 279 276 276 275 271 269 269 271 272 273 278 283 292 304 310 312 318 324 324 326 328 328 326
320 311 301 294 289 283 280 279 276 274 276 278 280 282 282 282 282 283 283 282 281 277 275 271 270 267 264 267 270 273 276 279 292 301 307 315 320 321 322 325 324 324 324
Wind_Speed_850mb
45 47 50 43 42 37 36 33 35 31 32 30 29 28 27 23 20 18 14 12 13 13 11 9 8 10 12 16 19 20 23 28 35 39 37 26 7 20 14 34 21 36 25
49 50 49 45 42 42 39 34 31 35 30 23 20 24 25 23 18 15 12 9 8 5 4 5 7 11 14 16 20 25 27 30 36 38 26 25 17 9 33 14 34 28 41
55 56 51 47 43 42 40 39 42 40 35 34 36 34 29 21 18 13 9 5 1 3 5 8 10 12 15 20 25 29 32 32 29 28 23 12 9 46 24 30 27 34 46
55 57 49 45 47 50 49 50 44 40 41 41 39 33 27 26 18 10 5 6 5 5 7 9 11 15 19 23 28 30 31 30 31 21 18 12 20 13 28 45 46 47 59
54 51 48 48 48 45 45 41 39 37 35 31 28 33 30 22 13 13 12 8 6 5 6 8 13 20 26 29 28 27 26 28 27 28 30 28 21 13 34 33 58 61 58
59 52 48 48 45 41 41 39 38 38 40 39 35 31 22 19 21 18 12 8 6 6 8 16 22 26 27 28 28 28 28 28 25 24 26 28 30 35 36 50 61 59 56
71 63 51 43 42 40 40 40 39 39 37 34 32 28 25 23 17 12 7 7 7 12 17 21 26 27 26 26 26 27 27 27 28 28 28 27 27 29 34 41 53 58 48
56 50 46 46 43 44 42 38 36 36 37 37 38 36 31 22 17 16 13 10 13 18 24 29 26 23 22 24 26 27 27 27 27 27 28 29 30 32 36 41 51 61 44
42 48 45 44 43 39 39 40 42 45 46 44 40 34 29 25 22 18 16 23 29 31 23 21 18 19 22 24 25 26 27 27 28 29 30 30 32 34 35 38 41 46 44
50 45 43 41 44 45 47 48 47 46 44 41 37 33 20 14 10 11 12 23 23 20 15 15 17 20 23 24 23 25 28 29 32 33 33 33 33 34 35 37 39 40 44
50 45 40 48 51 53 53 54 51 49 42 30 17 9 7 2 5 19 16 16 14 14 14 16 17 20 21 22 25 27 29 31 32 32 32 33 34 33 34 37 41 44 49
44 47 57 61 61 56 54 48 32 20 17 6 3 10 12 22 20 21 15 14 15 15 16 16 18 20 20 23 25 27 29 29 31 32 34 34 33 34 37 42 46 49 53
53 64 65 61 54 39 29 22 23 29 31 32 35 31 25 22 20 17 15 16 18 16 16 17 18 20 23 25 27 28 29 31 33 33 34 35 36 38 42 47 51 55 62
65 70 66 56 50 46 40 34 32 34 40 39 34 29 25 23 21 19 20 20 20 18 17 18 19 22 25 27 28 30 30 31 33 35 35 37 39 44 47 52 55 61 68
60 65 61 55 51 42 34 38 42 42 39 36 33 31 29 26 23 24 24 23 21 18 19 20 22 25 28 28 28 31 32 31 33 35 34 37 42 46 47 49 53 63 63
64 58 55 55 50 42 44 45 44 43 40 39 36 34 32 29 28 29 27 24 21 20 22 23 24 28 31 31 30 30 32 33 35 35 35 38 42 46 47 49 56 57 58
58 59 61 55 50 51 49 48 47 45 42 41 38 37 34 32 33 31 30 27 24 23 25 27 29 30 30 32 32 32 33 35 37 37 37 38 41 44 48 55 61 57 54
53 55 53 52 51 50 49 51 48 43 41 41 39 40 37 37 35 33 31 29 28 28 30 32 32 32 30 32 34 34 35 37 36 38 37 37 40 43 51 62 61 60 58
40 45 50 48 51 52 51 54 48 44 45 43 42 41 41 39 37 35 34 33 33 34 35 35 35 34 32 34 36 36 37 37 36 34 34 38 41 48 55 58 61 60 59
35 40 42 44 50 53 52 50 48 46 45 43 42 42 41 41 39 37 38 38 39 40 40 38 36 35 35 36 39 40 39 36 33 31 33 37 42 49 53 54 56 58 58
22 25 28 33 36 38 40 44 45 46 40 42 43 42 41 40 40 43 45 44 46 45 43 41 39 37 37 39 40 41 38 36 34 33 35 36 42 47 49 48 50 50 50
11 13 18 24 27 31 35 39 43 40 41 43 41 40 41 43 47 49 50 50 50 48 45 44 42 40 40 39 39 41 39 35 35 35 34 37 43 46 48 47 46 49 52
4 5 10 15 20 25 29 32 33 35 38 38 39 42 45 49 51 53 53 54 54 52 48 47 46 45 41 39 39 38 37 33 33 34 35 40 45 46 47 46 48 50 51
6 3 4 6 9 12 17 21 27 33 39 39 41 45 50 52 53 54 56 57 56 54 53 51 49 46 45 41 39 36 35 34 35 32 35 41 44 45 47 49 48 48 49
6 9 13 15 16 19 23 28 32 38 42 45 49 52 55 57 58 59 59 60 59 57 55 53 52 49 47 43 41 36 34 36 37 36 39 42 44 47 50 50 47 47 48
14 16 19 22 24 29 33 36 41 48 52 56 58 59 61 62 64 64 62 62 61 59 59 56 54 50 50 47 44 39 37 38 38 39 41 43 46 50 52 52 51 47 48
Wind_Direction_850mb
188 174 174 172 172 175 173 185 178 181 181 189 182 193 202 225 230 243 264 285 302 307 310 330 347 351 356 0 358 3 359 346 344 340 341 352 342 266 278 319 308 315 312
180 183 173 175 174 170 174 181 184 186 191 191 191 214 219 228 231 236 251 273 293 309 350 10 15 7 9 7 2 356 355 349 348 345 357 343 0 228 309 313 322 313 315
179 175 176 177 179 178 179 180 184 185 177 187 197 202 215 227 218 220 240 252 156 64 41 24 18 19 8 356 350 346 342 345 356 345 1 335 313 322 322 327 332 326 330
173 180 176 172 179 177 180 189 194 192 193 202 211 219 216 215 217 211 188 138 103 57 35 28 16 1 351 344 338 342 344 346 348 351 351 325 310 323 315 324 332 322 334
174 172 170 178 188 188 187 188 191 190 189 191 196 198 206 204 195 161 148 128 106 80 45 11 356 348 342 339 342 346 346 351 358 355 351 351 355 299 317 319 321 331 347
168 168 177 183 184 181 182 185 185 184 184 189 189 197 202 182 162 155 146 116 80 45 11 356 344 339 341 342 347 352 356 357 359 355 353 349 347 339 337 326 331 336 355
156 160 169 177 175 175 176 181 183 179 179 182 181 173 163 150 141 125 117 97 59 17 354 340 337 339 345 348 352 352 352 349 350 352 354 349 346 339 335 333 334 337 348
158 163 169 174 174 175 176 173 169 165 158 153 148 143 135 133 129 110 89 59 24 356 334 328 328 336 346 349 348 346 346 347 347 348 350 350 347 346 347 347 344 342 337
146 152 165 173 172 168 163 160 157 150 144 141 135 131 126 105 86 69 20 335 323 309 304 313 328 336 343 343 343 341 341 343 346 349 350 350 350 351 349 348 349 347 335
145 154 168 165 158 154 149 146 143 137 129 124 117 104 78 60 23 349 312 283 278 279 302 317 329 334 339 338 338 339 343 346 348 348 348 348 348 349 347 347 345 342 332
156 164 160 151 148 144 142 139 135 128 120 109 107 51 53 105 297 270 254 255 285 300 310 323 328 331 333 333 338 342 342 344 344 342 340 341 342 342 343 343 339 335 331
165 163 151 145 143 142 138 134 130 127 125 85 241 233 196 233 236 236 257 283 292 300 309 316 319 323 328 334 335 336 336 335 334 334 335 336 335 337 340 338 337 334 333
162 154 149 145 144 145 154 178 194 201 233 240 206 212 233 240 237 249 267 278 281 290 300 309 318 322 328 327 327 326 327 328 328 330 329 327 331 335 334 335 335 334 335
163 156 158 166 177 182 193 206 206 192 187 197 219 234 237 238 243 255 267 271 277 286 300 307 314 317 318 319 317 317 322 325 325 322 320 323 329 331 332 334 337 337 333
172 173 174 183 188 194 195 181 181 190 207 223 235 235 237 240 248 258 263 268 276 287 297 303 309 312 308 307 311 316 320 321 317 313 315 321 322 326 329 333 334 335 335
182 187 192 191 193 199 192 194 202 214 226 234 234 239 240 242 249 258 264 268 274 288 292 297 299 299 304 310 310 312 314 314 309 309 314 317 320 323 327 328 332 337 335
191 194 194 200 206 203 203 211 220 230 232 235 237 240 242 246 251 259 264 269 276 283 286 289 287 292 300 305 309 310 309 309 307 308 312 315 316 323 324 329 333 335 336
199 202 208 217 214 213 219 228 233 231 234 239 242 243 245 248 254 260 267 274 276 276 277 280 285 290 297 304 306 308 307 305 306 308 310 314 322 327 327 328 332 333 334
218 225 230 229 223 227 234 236 234 233 237 242 245 247 248 253 259 264 268 272 272 271 273 276 282 289 296 301 306 303 300 301 301 302 313 320 322 326 328 328 329 329 332
219 227 236 236 233 238 240 235 236 240 244 249 251 249 251 256 264 271 273 272 269 268 270 274 282 288 295 302 298 295 295 295 300 314 313 315 319 323 327 326 327 328 333
201 209 219 232 238 237 236 236 240 246 251 250 251 254 259 267 274 275 274 271 266 267 271 276 281 286 293 293 293 294 297 296 304 305 306 317 321 324 326 327 329 328 323
193 206 218 226 233 237 241 245 250 254 253 252 255 261 268 272 275 275 274 272 270 270 273 277 281 284 284 283 284 288 292 295 296 300 312 322 324 326 327 329 329 326 328
139 203 228 237 242 247 250 251 250 250 250 253 258 264 270 276 278 279 277 274 272 274 275 278 279 276 275 276 280 283 286 287 292 304 316 320 321 322 326 331 330 329 329
70 38 325 291 275 264 262 261 256 253 253 258 267 273 277 280 281 281 278 276 277 277 275 275 275 273 273 275 277 278 278 284 292 303 313 314 317 323 326 327 328 329 331
343 323 316 309 303 288 278 269 264 261 266 271 274 278 282 283 284 284 283 281 279 276 276 275 271 269 269 271 272 273 278 283 292 304 310 312 318 324 324 326 328 328 326
320 311 301 294 289 283 280 279 276 274 276 278 280 282 282 282 282 283 283 282 281 277 275 271 270 267 264 267 270 273 276 279 292 301 307 315 320 321 322 325 324 324 324